Location: Newark
(49.8969°N, 3.3422°E)
Time: 06:47:25
(UTC+00:00)

Tiros 1 - Pass Details

Date: 24 January 2021
Orbit: 630 x 664 km, 48.4° (Epoch: 06 March)

Event Time Altitude Azimuth Distance (km) Brightness Sun altitude
Rises 17:53:30 0° 226° (SW) 2,924 11.6 -13.6°
Reaches altitude 10° 17:55:58 10° 217° (SW) 2,013 10.4 -14.0°
Maximum altitude 18:00:10 35° 152° (SSE) 1,020 8.0 -14.6°
Enters shadow 18:02:24 22° 103° (ESE) 1,374 8.3 -15.0°
